Theta_e
316 316 320 318 320 322 323 322 323 322 324 323 324 324 325 325 323 323 322 322 322 320 318 317 317 317 316 315 314 314 312 311 310 307 304 302 301 297 294 291 289 289 288
314 314 314 315 316 315 316 316 317 317 318 319 319 319 319 320 319 319 318 317 317 316 316 315 314 314 313 311 305 302 302 301 299 297 296 296 294 292 290 289 289 288 288
307 308 310 311 312 311 311 310 310 310 311 309 310 314 316 317 317 316 315 315 315 313 313 313 311 308 303 301 300 297 294 294 294 293 293 292 291 290 289 288 287 287 287
308 308 309 310 311 311 312 312 313 312 312 311 310 310 311 313 314 314 312 312 311 311 310 306 303 301 299 296 294 294 294 293 293 292 292 291 290 289 288 287 287 286 286
308 309 309 309 310 309 307 308 307 307 307 308 309 310 311 311 310 309 309 309 308 305 302 300 300 296 293 293 293 293 293 292 291 291 290 289 288 288 287 287 286 286 285
303 304 305 305 306 306 306 307 307 307 307 308 308 308 308 308 307 305 302 301 300 299 297 294 293 292 293 293 292 292 291 291 291 290 289 288 288 287 286 286 285 285 285
301 302 302 302 303 304 304 304 304 305 306 306 306 306 304 302 300 299 298 296 294 292 292 292 292 292 292 291 291 291 291 291 290 289 288 288 287 286 285 285 284 284 284
301 302 302 301 302 302 301 301 302 303 302 301 300 299 299 299 298 295 293 291 291 292 292 292 291 291 291 291 291 290 290 290 289 288 287 286 285 285 284 284 284 283 283
300 300 300 300 300 300 300 300 299 298 298 298 297 297 297 297 295 292 291 291 292 291 291 291 291 291 291 290 290 290 289 289 288 287 286 286 285 284 283 283 283 283 283
298 299 299 298 298 298 297 297 297 297 297 297 297 296 294 292 292 292 292 292 291 291 291 291 291 291 290 290 290 289 288 288 287 286 286 285 284 283 283 282 282 282 281
297 297 297 297 297 297 297 297 297 297 296 295 294 292 291 291 291 292 292 291 291 291 291 291 291 291 290 290 290 289 288 288 287 286 284 283 283 282 282 282 281 281 281
297 297 297 297 297 297 297 296 296 294 293 291 291 290 290 291 291 291 292 291 291 291 291 291 291 290 290 290 289 289 288 287 286 285 283 283 282 282 281 281 281 281 281
297 297 297 297 297 297 296 296 295 293 292 291 290 290 291 291 291 291 291 291 291 291 291 290 290 290 289 289 289 288 288 287 286 285 283 282 282 282 281 281 280 280 281
298 297 297 296 296 296 295 295 294 293 292 290 290 289 289 290 290 290 290 291 291 290 290 290 290 289 289 289 288 287 286 286 285 284 283 282 281 281 280 280 281 280 280
297 297 297 297 296 296 295 294 293 292 292 291 290 290 290 290 289 290 290 289 289 289 290 289 289 289 288 287 287 286 286 285 285 283 283 282 281 280 280 279 279 280 280
295 297 297 296 296 296 296 296 297 296 296 295 295 294 293 292 289 289 289 289 289 289 289 289 289 288 287 287 286 286 285 284 282 281 281 281 280 280 279 279 279 279 279
291 292 293 295 296 295 295 296 296 296 295 294 294 294 294 294 293 290 288 288 289 289 289 289 288 287 287 286 285 285 284 283 282 281 280 280 279 279 279 279 279 279 279
291 291 291 291 293 295 295 294 294 294 294 294 294 293 293 291 289 290 291 290 289 289 288 287 287 286 286 285 285 284 284 283 282 281 280 279 278 278 278 278 278 278 278
291 291 290 290 290 292 293 293 293 293 293 293 293 293 290 290 289 288 288 288 288 288 287 287 286 285 285 284 284 284 283 283 282 282 281 279 277 276 276 276 277 277 277
289 290 290 290 289 290 292 292 293 293 293 292 293 291 289 289 289 288 288 288 287 287 286 286 286 286 285 285 284 284 283 283 282 281 280 278 277 276 276 276 276 276 276
289 289 289 290 290 289 289 291 291 291 291 291 290 289 288 288 288 288 287 286 286 286 286 285 285 285 284 284 283 282 282 282 281 280 279 278 276 276 276 276 276 276 275
288 289 289 289 289 288 288 288 289 289 289 288 288 287 287 287 287 287 287 286 286 285 285 285 285 284 283 283 282 281 281 281 280 279 279 278 277 276 275 275 275 275 274
286 287 288 288 288 288 288 288 287 287 287 287 287 286 286 286 286 285 285 285 285 285 284 283 283 283 282 281 281 280 280 280 279 279 278 278 277 276 275 275 274 274 274
285 286 286 287 287 287 287 287 287 286 286 285 285 285 285 285 285 284 284 284 283 283 282 281 281 281 281 280 280 279 279 279 278 277 276 276 276 275 275 275 275 274 274
285 285 285 285 286 286 286 286 285 285 285 285 284 284 283 283 283 282 281 281 281 281 280 280 279 279 279 279 279 279 278 277 276 276 275 275 276 275 275 275 274 273 273
283 284 283 284 284 284 284 283 283 283 282 282 282 281 281 280 280 280 279 279 279 278 278 278 278 278 278 278 278 278 278 278 278 278 278 278 277 277 275 274 274 273 273
Wind_Speed
8 6 7 10 9 8 9 12 13 13 13 13 13 16 16 17 21 17 14 9 7 6 6 6 5 6 6 8 8 6 7 7 9 9 8 8 8 7 8 10 11 13 14
10 10 13 16 14 13 12 11 9 8 7 4 3 1 3 3 4 4 4 4 3 2 2 4 4 4 4 4 4 4 4 4 6 6 6 6 7 7 9 11 12 13 14
12 14 15 13 12 9 6 5 4 4 3 2 0 2 3 1 3 5 4 3 3 3 4 4 3 2 2 2 2 3 3 4 5 5 5 6 7 8 9 11 12 13 14
4 4 6 7 6 2 3 5 6 7 9 8 6 8 9 9 6 5 4 4 4 3 6 4 2 1 1 1 2 3 4 5 5 5 5 6 7 9 11 12 12 14 13
5 5 3 3 4 3 3 3 2 3 3 3 5 6 6 6 6 5 4 5 6 5 4 2 2 2 0 2 2 3 4 5 5 7 7 8 9 10 12 14 14 14 13
3 3 4 5 6 4 6 7 5 6 6 6 6 6 6 7 7 7 6 6 5 5 4 4 3 2 0 1 3 4 5 7 8 9 9 10 12 13 14 14 14 15 14
6 7 7 8 7 7 8 9 9 8 8 8 8 9 8 8 8 7 6 6 6 5 5 3 2 2 3 4 5 6 8 9 10 11 12 13 13 13 14 15 15 15 15
8 9 8 8 7 7 7 6 7 7 6 6 6 7 6 6 6 6 5 5 4 3 3 1 2 3 4 5 6 8 10 11 12 13 14 14 14 15 15 15 15 15 16
7 8 8 8 7 6 5 5 6 5 6 5 5 6 7 6 6 5 4 4 2 1 1 1 3 4 5 7 9 11 13 14 14 15 15 16 16 16 15 15 16 17 19
7 7 6 6 6 6 6 6 5 5 4 5 4 4 5 6 5 5 3 2 2 0 1 2 4 6 8 10 11 13 14 15 16 18 18 18 17 17 16 16 16 18 20
6 6 5 5 5 5 4 4 4 3 3 4 4 4 4 4 4 3 3 2 2 2 3 4 6 7 9 11 13 14 16 17 19 19 19 19 19 18 17 18 18 19 21
5 4 4 3 3 3 2 1 1 1 2 3 3 4 4 4 4 4 4 4 5 6 7 7 8 10 12 14 15 16 18 19 20 20 20 20 20 20 19 19 19 21 23
4 3 3 1 1 1 2 2 3 3 3 4 5 5 6 6 7 7 7 7 8 8 10 11 12 13 15 16 18 20 20 21 21 21 21 21 22 22 21 21 21 22 24
2 2 2 2 3 3 4 4 5 5 6 7 7 8 9 10 9 9 10 10 11 12 14 14 15 16 18 19 20 20 22 23 24 23 23 23 22 22 22 23 23 22 25
6 5 3 3 5 6 5 5 7 8 9 10 11 12 13 12 12 15 14 14 15 16 17 17 18 20 21 21 21 22 23 25 25 25 25 24 23 24 23 23 24 25 26
10 10 11 12 11 10 9 10 10 11 12 12 12 13 15 17 17 17 18 19 19 20 21 20 20 21 22 22 23 23 24 26 24 26 26 26 26 25 25 24 25 26 28
10 11 14 16 16 16 14 13 12 14 15 17 18 18 19 19 20 18 20 20 21 23 24 22 22 21 22 23 25 26 27 25 26 26 27 27 27 27 28 27 26 27 28
18 18 17 16 18 19 19 18 16 19 21 20 21 22 21 20 20 21 22 23 24 23 24 24 24 24 25 27 28 29 29 29 28 27 28 27 25 27 28 28 27 28 29
22 21 20 20 20 20 21 20 20 21 21 22 23 22 19 19 20 21 21 24 24 25 24 25 26 28 29 30 31 32 31 31 30 29 30 29 28 29 30 29 29 29 30
23 22 22 22 21 22 22 23 25 25 25 24 22 17 19 23 22 21 23 25 27 28 28 30 30 32 33 33 34 33 33 32 30 29 29 28 28 29 29 29 28 29 29
21 21 21 22 22 21 21 21 21 22 23 22 20 19 23 26 25 25 25 26 28 30 32 33 34 35 34 33 33 33 32 32 29 28 28 27 27 28 27 28 29 29 30
18 19 20 20 20 21 20 21 22 23 24 24 21 22 25 28 29 29 29 29 29 31 33 35 35 34 33 32 31 31 31 29 27 27 27 27 27 27 27 28 28 29 29
17 18 18 19 20 21 21 22 23 23 24 24 24 24 25 27 28 29 29 29 30 31 31 32 32 31 29 29 29 29 29 27 26 26 26 25 26 27 28 28 28 28 28
13 14 15 17 19 20 21 21 22 23 23 23 24 24 24 24 25 26 27 28 28 27 27 27 28 28 27 26 25 26 27 26 26 26 27 27 27 27 27 27 27 27 27
13 12 12 13 14 16 17 19 20 21 21 22 22 22 22 23 23 23 24 24 24 24 24 24 25 26 26 26 25 25 25 26 27 27 27 27 27 27 27 27 27 27 27
13 13 13 13 14 14 15 16 16 17 18 19 19 20 20 20 20 21 21 22 23 23 23 23 24 25 26 26 26 26 27 27 27 27 28 28 28 27 27 26 26 26 25
Wind_Direction
130 125 139 125 147 146 170 180 184 197 203 218 219 218 226 232 243 245 220 207 222 264 270 266 263 262 255 263 267 272 274 271 270 268 261 264 279 292 305 305 309 313 316
130 117 106 107 111 98 81 79 88 95 86 95 104 256 203 179 181 194 231 204 231 259 238 247 243 258 262 267 271 286 300 296 293 293 293 292 291 301 309 308 310 309 312
99 110 104 93 83 85 89 87 113 95 102 191 214 339 324 285 203 225 229 214 208 236 238 229 206 228 256 280 316 329 336 332 317 310 309 290 296 305 307 306 307 312 316
114 78 72 67 62 49 324 306 300 285 274 282 292 262 256 249 240 214 213 237 234 197 181 173 209 248 323 341 351 337 333 330 324 322 322 315 309 309 306 307 310 312 313
191 210 224 289 327 329 272 274 226 187 172 171 184 184 194 203 226 221 218 191 173 163 200 174 162 141 137 302 339 341 343 331 333 336 329 319 313 310 310 312 312 313 315
105 144 162 159 141 138 139 139 139 144 135 137 146 151 166 161 138 140 140 151 161 158 148 139 143 155 121 351 353 353 343 338 337 331 325 318 315 314 311 310 313 314 322
109 103 105 105 111 125 128 132 135 133 135 133 135 132 138 149 139 144 147 144 139 135 129 121 102 48 20 10 357 343 336 333 330 329 323 318 311 309 310 311 311 311 311
105 104 106 109 113 116 121 126 125 133 127 130 133 136 148 151 139 140 139 125 122 116 99 68 31 8 355 347 343 333 329 328 328 324 318 316 312 308 306 306 306 308 308
104 106 111 112 110 115 115 106 105 110 118 123 131 140 139 142 139 137 133 126 116 100 83 20 353 346 341 334 334 329 325 323 319 317 316 313 307 303 302 303 306 307 307
98 94 99 103 101 96 93 94 96 100 112 118 130 142 144 145 144 148 154 163 161 165 343 331 333 336 333 329 327 322 319 317 315 314 314 309 305 303 302 301 301 302 307
77 81 86 89 92 90 89 96 101 117 133 145 153 162 163 163 172 181 194 224 252 278 303 311 314 313 314 318 316 314 313 311 308 309 309 306 303 299 297 297 298 299 301
87 88 87 87 87 86 81 82 123 165 181 177 168 178 197 213 226 239 247 258 271 278 284 292 300 305 309 309 308 307 305 304 304 306 304 303 300 296 293 292 293 293 296
91 82 74 64 47 346 270 243 225 227 227 215 210 221 231 237 240 245 256 267 275 284 287 291 296 301 303 304 305 306 304 302 302 301 299 297 294 292 289 287 288 290 295
101 56 24 331 322 306 285 269 259 244 242 242 245 254 255 256 262 267 264 270 273 275 280 285 292 299 302 303 303 302 301 300 300 299 294 291 290 289 288 287 289 289 292
247 250 271 291 295 292 290 281 272 266 264 259 256 261 267 264 261 259 264 265 269 276 284 293 298 297 297 300 299 299 298 297 297 296 294 292 289 288 288 287 290 293 295
270 262 255 254 252 262 271 272 280 274 277 279 278 279 278 275 265 268 275 275 278 282 286 289 291 292 293 294 294 294 294 295 295 293 294 291 287 286 286 287 288 290 294
290 277 265 259 258 259 257 264 268 269 278 284 283 283 287 286 275 268 272 276 278 282 286 290 290 288 288 289 291 291 292 291 293 294 292 289 284 283 285 285 287 290 294
279 278 277 274 264 257 257 254 260 274 282 287 289 285 285 281 270 264 265 270 272 278 283 286 288 288 288 288 288 289 290 291 292 292 287 285 284 285 284 286 289 293 295
273 273 273 270 266 262 258 255 264 266 269 275 277 280 280 270 265 264 266 272 276 274 277 282 286 288 287 286 287 288 290 291 291 290 286 284 284 284 287 289 291 292 295
273 270 267 267 265 262 260 259 259 264 269 273 276 277 267 268 267 267 267 269 273 279 282 283 283 283 286 289 291 292 291 291 291 289 287 287 288 287 289 291 291 294 298
272 268 267 265 265 266 261 260 263 265 270 272 271 263 262 262 264 265 266 268 273 278 280 282 284 286 288 289 290 290 290 291 291 291 291 290 289 289 291 291 293 295 297
279 275 270 268 263 260 259 256 254 255 258 263 263 260 261 266 271 272 273 275 277 280 283 286 289 291 294 294 293 292 292 292 293 291 290 291 292 293 293 294 295 296 297
284 279 274 269 265 261 260 262 263 265 267 269 270 269 268 272 276 281 284 286 286 288 290 292 294 295 295 294 293 293 292 293 292 291 292 292 292 293 293 295 296 297 297
293 291 285 280 276 275 275 274 275 275 277 279 281 284 285 285 286 287 288 289 291 293 293 293 293 294 294 292 291 291 292 293 293 294 294 294 294 294 294 295 296 297 296
291 292 288 284 281 280 279 278 278 280 282 285 287 288 289 289 290 291 291 292 294 294 294 294 295 295 296 296 296 294 292 292 293 293 294 295 295 295 295 295 295 293 293
300 299 300 300 298 296 294 293 292 291 291 291 292 293 294 294 295 296 296 297 298 300 302 302 301 300 300 300 300 298 297 296 296 295 294 293 292 292 291 291 291 292 293